Regional Weather Roundup
Issued by NWS Sioux Falls, SD

Home | Current Version | Previous Version | Graphics & Text | Print | Product List | Glossary Off
Versions: 1 2 3 4 5 6 7 8 9 10 11 12 13 14 15 16 17 18 19 20 21 22 23 24 25 26 27 28 29 30 31 32 33 34 35 36 37 38 39 40 41 42 43 44 45 46 47 48 49 50

000
ASUS43 KFSD 270902
RWRFSD

WEATHER ROUNDUP FOR SE SOUTH DAKOTA/SW MINNESOTA/NW IOWA
NATIONAL WEATHER SERVICE SIOUX FALLS SD
400 AM CDT WED AUG 27 2014

NOTE: "FAIR" INDICATES FEW OR NO CLOUDS BELOW 12,000 FEET WITH NO
SIGNIFICANT WEATHER AND OR OBSTRUCTIONS TO VISIBILITY.


SDZ038>040-050-052>070-271000-
SOUTHEAST SOUTH DAKOTA

CITY           SKY/WX    TMP DP  RH WIND       PRES   REMARKS
CHAMBERLAIN    PTCLDY    60  59  96 E8        30.12S
HURON          MOCLDY    59  57  93 E3        30.15R
MADISON        FAIR      54  54 100 E6        30.17S
MITCHELL       PTCLDY    58  57  97 E6        30.14F
SIOUX FALLS    PTCLDY    59  57  93 E7        30.16F
WINNER         CLOUDY    65  63  93 SE7       30.11F
YANKTON        PTCLDY    59  57  94 E6        30.15S
$$

MNZ071-072-080-081-089-090-097-098-271000-
SOUTHWEST MINNESOTA

CITY           SKY/WX    TMP DP  RH WIND       PRES   REMARKS
FAIRMONT       PTCLDY    57  54  88 N3        30.19R
JACKSON        PTCLDY    55  54  94 CALM      30.20R
LUVERNE        CLEAR     59  54  82 E5        30.17F
MARSHALL       PTCLDY    61  55  82 CALM      30.18R
MONTEVIDEO     CLEAR     57  55  94 CALM      30.19S
PIPESTONE      CLEAR     57  55  94 E3        30.19S
REDWOOD FALLS  CLOUDY    62  57  83 E3        30.18S
TRACY          CLOUDY    62  58  89 CALM      30.18F
WINDOM         CLEAR     59  55  88 CALM      30.19F
WORTHINGTON    CLEAR     55  54  94 CALM      30.20S
$$

IAZ001>003-012>014-020>022-031-032-NEZ013-014-SDZ071-271000-
NORTHWEST IOWA

CITY           SKY/WX    TMP DP  RH WIND       PRES   REMARKS
CHEROKEE       MOCLDY    59  59  99 N3        30.17R
DENISON        CLOUDY    63  63 100 E5        30.12F
ESTHERVILLE    PTCLDY    57  55  93 CALM      30.18R
LE MARS        CLOUDY    61  59  94 CALM      30.16F
ORANGE CITY    PTCLDY    61  55  82 NE6       30.17F
SHELDON        CLEAR     55  55 100 E3        30.17S
SIOUX CITY     CLOUDY    65  60  84 NE5       30.14S
SPENCER        CLOUDY    59  56  89 CALM      30.18S
STORM LAKE     CLOUDY    63  61  94 NE6       30.17R
$$

ABBREVIATIONS USED IN REMARKS
   TC - TEMPERATURE IN CELSIUS
  WCI - WIND CHILL INDEX
   HX - HEAT INDEX
  VSB - VISIBILITY



USA.gov is the U.S. government's official web portal to all federal, state and local government web resources and services.